SHERINGHAM POINT (A current weather conditions

sailwx.info

Wind from 080 at 6 knots

Air temperature 9.0° C

Last reported at 2019-Nov-14 13:00 UTC.
Time now 2019-Nov-14 16:26 UTC

Location: N 48°23' W 123°55'.
View on Google Maps.

See reports from other nearby stations

  
Tides and Currents Weather Stations Pressure Air Temp Water Temp Dewpoint Dewpoint Depression Visibility Wind Speed Wind Dir Waves Ship Positions
date/time (UTC)wind fromknots sea level pressurealtimeterstation pressurevisibilityair tempwater tempwave heightnotes
2019-Nov-14 13:00 080 6 9.0
2019-Nov-14 12:00 080 5 9.0
2019-Nov-14 11:00 090 5 9.0
2019-Nov-14 10:00 080 7 9.0
2019-Nov-14 09:00 090 7 9.0
2019-Nov-14 08:00 090 6 9.0
2019-Nov-14 07:00 080 7 9.0
2019-Nov-14 06:00 080 4 9.0
2019-Nov-14 05:00 090 9 gusting 16 9.0
2019-Nov-14 04:00 090 10 9.0
2019-Nov-14 03:00 090 8 9.0
2019-Nov-14 02:00 080 8 9.0
2019-Nov-14 01:00 110 13 10.0
2019-Nov-14 00:00 110 12 10.0
2019-Nov-13 23:00 110 13 11.0
2019-Nov-13 22:00 100 15 11.0
2019-Nov-13 21:00 100 16 11.0
2019-Nov-13 20:00 100 13 11.0
2019-Nov-13 19:00 100 16 11.0
2019-Nov-13 18:00 090 9 10.0
2019-Nov-13 17:00 090 4 9.0
2019-Nov-13 16:00 070 5 9.0
2019-Nov-13 15:00 110 2 8.0
2019-Nov-13 14:00 100 2 8.0
2019-Nov-13 13:00 060 4 8.0
2019-Nov-13 12:00 070 2 8.0
2019-Nov-13 11:00 100 3 8.0
2019-Nov-13 10:00 060 2 9.0
2019-Nov-13 09:00 080 5 9.0
2019-Nov-13 08:00 090 3 9.0
2019-Nov-13 07:00 300 3 10.0
2019-Nov-13 06:00 310 1 10.0
2019-Nov-13 05:00 300 1 9.0
2019-Nov-13 04:00 050 2 9.0
2019-Nov-13 03:00 090 3 9.0
2019-Nov-13 02:00 100 4 9.0
2019-Nov-13 01:00 100 3 9.0
2019-Nov-13 00:00 9.0
2019-Nov-12 23:00 9.0
2019-Nov-12 22:00 290 1 8.0
2019-Nov-12 21:00 8.0
2019-Nov-12 20:00 150 1 8.0
2019-Nov-12 19:00 090 2 8.0
2019-Nov-12 18:00 110 2 8.0
2019-Nov-12 17:00 080 2 8.0
2019-Nov-12 16:00 090 3 8.0